| time (UTC) | temp F | wind direction | speed knots | gust knots | rain 1hr in | rain 24hr in | rain mn in | humidity % | barometer mb |
| 20260906144955 | 38 | 281 | 0.0 | 0.0 | 0.00 | 0.00 | 0.00 | 98 | 1023.8 |
| 20260906144451 | 38 | 292 | 0.0 | 0.0 | 0.00 | 0.00 | 0.00 | 98 | 1023.7 |
| 20260906143946 | 38 | 292 | 0.0 | 0.0 | 0.00 | 0.00 | 0.00 | 98 | 1023.5 |
| 20260906143441 | 38 | 285 | 0.0 | 0.0 | 0.00 | 0.00 | 0.00 | 98 | 1023.4 |
| 20260906142937 | 38 | 279 | 0.0 | 0.0 | 0.00 | 0.00 | 0.00 | 98 | 1023.5 |
| 20260906142437 | 39 | 295 | 0.0 | 0.0 | 0.00 | 0.00 | 0.00 | 98 | 1023.5 |
| 20260906141932 | 39 | 283 | 0.0 | 0.0 | 0.00 | 0.00 | 0.00 | 98 | 1023.6 |
| 20260906141432 | 39 | 270 | 0.0 | 0.0 | 0.00 | 0.00 | 0.00 | 98 | 1023.7 |
| 20260906140926 | 39 | 260 | 0.0 | 0.0 | 0.00 | 0.00 | 0.00 | 98 | 1023.6 |
| 20260906140421 | 39 | 265 | 0.0 | 0.0 | 0.00 | 0.00 | 0.00 | 98 | 1023.4 |
| 20260906135919 | 39 | 293 | 0.0 | 0.0 | 0.00 | 0.00 | 0.00 | 97 | 1023.4 |
| 20260906135418 | 39 | 292 | 0.0 | 0.0 | 0.00 | 0.00 | 0.00 | 98 | 1023.5 |
| 20260906134914 | 40 | 298 | 0.0 | 0.0 | 0.00 | 0.00 | 0.00 | 98 | 1023.5 |
| 20260906134409 | 39 | 309 | 0.0 | 0.0 | 0.00 | 0.00 | 0.00 | 98 | 1023.4 |
| 20260906133904 | 40 | 301 | 0.0 | 0.0 | 0.00 | 0.00 | 0.00 | 97 | 1023.6 |
| 20260906133400 | 40 | 291 | 0.0 | 0.0 | 0.00 | 0.00 | 0.00 | 97 | 1023.5 |
| 20260906132855 | 40 | 309 | 0.0 | 0.0 | 0.00 | 0.00 | 0.00 | 98 | 1023.5 |
| 20260906132350 | 40 | 301 | 0.0 | 0.0 | 0.00 | 0.00 | 0.00 | 97 | 1023.4 |
| 20260906131846 | 40 | 296 | 0.0 | 0.0 | 0.00 | 0.00 | 0.00 | 97 | 1023.2 |
| 20260906131341 | 40 | 299 | 0.0 | 0.0 | 0.00 | 0.00 | 0.00 | 97 | 1023.4 |
| 20260906130837 | 40 | 305 | 0.0 | 0.0 | 0.00 | 0.00 | 0.00 | 97 | 1023.2 |
| 20260906130336 | 40 | 294 | 0.0 | 0.0 | 0.00 | 0.00 | 0.00 | 96 | 1023.5 |
| 20260906125835 | 40 | 294 | 0.0 | 0.0 | 0.00 | 0.00 | 0.00 | 96 | 1023.5 |
| 20260906125332 | 41 | 292 | 0.0 | 0.0 | 0.00 | 0.00 | 0.00 | 96 | 1023.5 |
| 20260906124827 | 41 | 277 | 0.0 | 0.0 | 0.00 | 0.00 | 0.00 | 96 | 1023.6 |
| 20260906124324 | 40 | 300 | 0.0 | 0.0 | 0.00 | 0.00 | 0.00 | 96 | 1023.2 |
| 20260906123822 | 41 | 299 | 0.0 | 0.0 | 0.00 | 0.00 | 0.00 | 96 | 1023.4 |
| 20260906123318 | 41 | 279 | 0.0 | 0.0 | 0.00 | 0.00 | 0.00 | 96 | 1023.4 |
| 20260906122817 | 41 | 282 | 0.0 | 0.0 | 0.00 | 0.00 | 0.00 | 96 | 1023.2 |
| 20260906122312 | 41 | 288 | 0.0 | 0.0 | 0.00 | 0.00 | 0.00 | 96 | 1023.6 |
| 20260906121809 | 41 | 308 | 0.0 | 0.0 | 0.00 | 0.00 | 0.00 | 95 | 1023.4 |
| 20260906121305 | 41 | 268 | 0.0 | 0.0 | 0.00 | 0.00 | 0.00 | 95 | 1023.5 |
| 20260906120801 | 41 | 268 | 0.0 | 0.0 | 0.00 | 0.00 | 0.00 | 94 | 1023.2 |
| 20260906120257 | 41 | 281 | 0.0 | 0.0 | 0.00 | 0.00 | 0.00 | 94 | 1023.2 |
| 20260906115753 | 41 | 280 | 0.0 | 0.0 | 0.00 | 0.01 | 0.01 | 94 | 1023.4 |
| 20260906115248 | 41 | 284 | 0.0 | 0.0 | 0.00 | 0.01 | 0.01 | 94 | 1023.2 |
| 20260906114747 | 41 | 291 | 0.0 | 0.0 | 0.00 | 0.01 | 0.01 | 93 | 1023.1 |
| 20260906114242 | 41 | 289 | 0.0 | 0.0 | 0.00 | 0.01 | 0.01 | 93 | 1023.1 |
| 20260906113738 | 41 | 281 | 0.0 | 0.0 | 0.00 | 0.01 | 0.01 | 93 | 1022.9 |
| 20260906113237 | 42 | 286 | 0.0 | 0.0 | 0.00 | 0.01 | 0.01 | 93 | 1023.0 |
| 20260906112737 | 42 | 296 | 0.0 | 0.0 | 0.00 | 0.01 | 0.01 | 93 | 1023.4 |
| 20260906112233 | 43 | 278 | 0.0 | 0.0 | 0.00 | 0.01 | 0.01 | 93 | 1022.9 |
| 20260906111732 | 43 | 265 | 0.0 | 0.9 | 0.00 | 0.01 | 0.01 | 93 | 1023.0 |
| 20260906111227 | 43 | 256 | 0.0 | 0.9 | 0.00 | 0.01 | 0.01 | 93 | 1023.0 |
| 20260906110722 | 43 | 279 | 0.0 | 0.0 | 0.00 | 0.01 | 0.01 | 92 | 1023.1 |
| 20260906110218 | 44 | 282 | 0.0 | 0.0 | 0.00 | 0.01 | 0.01 | 92 | 1022.6 |
| 20260906105717 | 44 | 260 | 0.0 | 0.0 | 0.00 | 0.01 | 0.01 | 91 | 1022.7 |
| 20260906105213 | 44 | 270 | 0.0 | 0.0 | 0.00 | 0.01 | 0.01 | 91 | 1022.8 |
| 20260906104713 | 45 | 281 | 0.0 | 0.0 | 0.00 | 0.01 | 0.01 | 91 | 1022.8 |
| 20260906104212 | 45 | 283 | 0.0 | 0.0 | 0.00 | 0.01 | 0.01 | 91 | 1022.6 |
| 20260906103710 | 45 | 241 | 0.0 | 0.0 | 0.00 | 0.01 | 0.01 | 91 | 1022.7 |
| 20260906103205 | 45 | 215 | 0.0 | 0.9 | 0.00 | 0.01 | 0.01 | 90 | 1022.7 |
| 20260906102701 | 46 | 220 | 0.0 | 0.0 | 0.00 | 0.01 | 0.01 | 90 | 1022.6 |
| 20260906102159 | 46 | 223 | 0.0 | 0.9 | 0.00 | 0.01 | 0.01 | 90 | 1022.5 |
| 20260906101654 | 46 | 263 | 0.0 | 0.0 | 0.00 | 0.01 | 0.01 | 90 | 1022.4 |
| 20260906101149 | 46 | 222 | 0.0 | 0.0 | 0.00 | 0.01 | 0.01 | 90 | 1022.6 |
| 20260906100644 | 46 | 254 | 0.0 | 0.0 | 0.00 | 0.01 | 0.01 | 90 | 1022.4 |
| 20260906100139 | 46 | 251 | 0.0 | 0.0 | 0.00 | 0.01 | 0.01 | 90 | 1022.4 |
| 20260906095634 | 46 | 249 | 0.0 | 0.9 | 0.00 | 0.01 | 0.01 | 90 | 1022.6 |
| 20260906095129 | 46 | 302 | 0.0 | 0.0 | 0.00 | 0.01 | 0.01 | 89 | 1022.3 |
| 20260906094628 | 46 | 276 | 0.0 | 0.0 | 0.00 | 0.01 | 0.01 | 89 | 1022.3 |
| 20260906094124 | 47 | 281 | 0.0 | 0.0 | 0.00 | 0.01 | 0.01 | 88 | 1022.4 |
| 20260906093620 | 46 | 266 | 0.0 | 0.0 | 0.00 | 0.01 | 0.01 | 87 | 1022.2 |
| 20260906093114 | 47 | 279 | 0.0 | 0.0 | 0.00 | 0.01 | 0.01 | 87 | 1022.2 |
| 20260906092609 | 47 | 281 | 0.0 | 0.0 | 0.00 | 0.01 | 0.01 | 86 | 1022.1 |
| 20260906092104 | 48 | 289 | 0.0 | 0.0 | 0.00 | 0.01 | 0.01 | 86 | 1022.3 |
| 20260906091600 | 48 | 264 | 0.0 | 0.0 | 0.00 | 0.01 | 0.01 | 86 | 1022.4 |
| 20260906091056 | 48 | 259 | 0.0 | 0.0 | 0.00 | 0.01 | 0.01 | 86 | 1022.1 |
| 20260906090551 | 48 | 248 | 0.0 | 0.9 | 0.00 | 0.01 | 0.01 | 86 | 1022.1 |
| 20260906090046 | 49 | 247 | 0.9 | 0.9 | 0.00 | 0.01 | 0.01 | 85 | 1022.1 |
| 20260906085545 | 49 | 288 | 0.9 | 0.9 | 0.00 | 0.01 | 0.01 | 85 | 1022.2 |
| 20260906085044 | 49 | 275 | 0.0 | 0.0 | 0.00 | 0.01 | 0.01 | 84 | 1022.0 |
| 20260906084539 | 49 | 238 | 0.0 | 0.9 | 0.00 | 0.01 | 0.01 | 84 | 1021.8 |
| 20260906084037 | 49 | 244 | 0.9 | 0.9 | 0.00 | 0.01 | 0.01 | 84 | 1021.9 |
| 20260906083534 | 50 | 245 | 0.9 | 0.9 | 0.00 | 0.01 | 0.01 | 84 | 1022.0 |
| 20260906083033 | 50 | 241 | 0.9 | 0.9 | 0.00 | 0.01 | 0.01 | 83 | 1021.9 |
| 20260906082528 | 50 | 239 | 0.9 | 0.9 | 0.00 | 0.01 | 0.01 | 82 | 1021.9 |
| 20260906082024 | 51 | 282 | 0.0 | 0.0 | 0.00 | 0.01 | 0.01 | 82 | 1022.0 |
| 20260906081520 | 51 | 194 | 0.9 | 0.9 | 0.00 | 0.01 | 0.01 | 81 | 1021.9 |
| 20260906081016 | 51 | 237 | 0.9 | 0.9 | 0.00 | 0.01 | 0.01 | 81 | 1021.8 |
| 20260906080512 | 51 | 227 | 0.9 | 1.7 | 0.00 | 0.01 | 0.01 | 81 | 1021.9 |
| 20260906080008 | 52 | 235 | 1.7 | 1.7 | 0.00 | 0.01 | 0.01 | 81 | 1021.3 |
| 20260906075502 | 52 | 216 | 0.9 | 1.7 | 0.00 | 0.01 | 0.01 | 80 | 1021.4 |
| 20260906074956 | 52 | 239 | 0.9 | 1.7 | 0.00 | 0.01 | 0.01 | 79 | 1021.4 |
| 20260906074451 | 53 | 193 | 0.9 | 1.7 | 0.00 | 0.01 | 0.01 | 78 | 1021.4 |
| 20260906073949 | 53 | 240 | 0.9 | 0.9 | 0.00 | 0.01 | 0.01 | 78 | 1021.1 |
| 20260906073444 | 54 | 197 | 3.5 | 4.3 | 0.00 | 0.01 | 0.01 | 77 | 1021.3 |
| 20260906072941 | 54 | 210 | 0.9 | 1.7 | 0.00 | 0.01 | 0.01 | 76 | 1021.2 |
| 20260906072436 | 55 | 200 | 2.6 | 2.6 | 0.00 | 0.01 | 0.01 | 75 | 1021.2 |
| 20260906071932 | 55 | 187 | 2.6 | 4.3 | 0.00 | 0.01 | 0.01 | 74 | 1021.0 |
| 20260906071427 | 56 | 260 | 2.6 | 4.3 | 0.00 | 0.01 | 0.01 | 73 | 1020.9 |
| 20260906070923 | 57 | 171 | 2.6 | 2.6 | 0.00 | 0.01 | 0.01 | 72 | 1020.8 |
| 20260906070419 | 57 | 295 | 0.9 | 1.7 | 0.00 | 0.01 | 0.01 | 72 | 1020.7 |
| 20260906065915 | 57 | 222 | 1.7 | 1.7 | 0.00 | 0.01 | 0.01 | 72 | 1020.9 |
| 20260906065409 | 57 | 229 | 1.7 | 4.3 | 0.00 | 0.01 | 0.01 | 71 | 1020.8 |
| 20260906064905 | 58 | 173 | 3.5 | 5.2 | 0.00 | 0.01 | 0.01 | 71 | 1020.7 |
| 20260906064401 | 58 | 290 | 4.3 | 5.2 | 0.00 | 0.01 | 0.01 | 70 | 1020.5 |
| 20260906063901 | 58 | 260 | 2.6 | 5.2 | 0.00 | 0.01 | 0.01 | 70 | 1020.7 |
| 20260906063356 | 58 | 203 | 1.7 | 1.7 | 0.00 | 0.01 | 0.01 | 71 | 1020.6 |
| 20260906062851 | 59 | 226 | 1.7 | 4.3 | 0.00 | 0.01 | 0.01 | 70 | 1020.3 |
| 20260906062350 | 59 | 200 | 4.3 | 5.2 | 0.00 | 0.01 | 0.01 | 69 | 1020.3 |
| 20260906061846 | 59 | 223 | 3.5 | 5.2 | 0.00 | 0.01 | 0.01 | 69 | 1020.4 |
| 20260906061342 | 59 | 222 | 1.7 | 1.7 | 0.00 | 0.01 | 0.01 | 70 | 1020.3 |
| 20260906060836 | 59 | 215 | 1.7 | 1.7 | 0.00 | 0.01 | 0.01 | 69 | 1020.2 |
| 20260906060334 | 59 | 260 | 1.7 | 1.7 | 0.00 | 0.01 | 0.01 | 69 | 1020.3 |
| 20260906055830 | 59 | 255 | 1.7 | 2.6 | 0.00 | 0.01 | 0.01 | 69 | 1020.2 |
| 20260906055325 | 59 | 208 | 1.7 | 1.7 | 0.00 | 0.01 | 0.01 | 69 | 1020.3 |
| 20260906054821 | 59 | 263 | 2.6 | 2.6 | 0.00 | 0.01 | 0.01 | 69 | 1020.4 |
| 20260906054315 | 59 | 163 | 0.9 | 1.7 | 0.00 | 0.01 | 0.01 | 68 | 1020.3 |
| 20260906053812 | 59 | 184 | 0.9 | 2.6 | 0.00 | 0.01 | 0.01 | 69 | 1020.0 |
| 20260906053307 | 59 | 249 | 2.6 | 4.3 | 0.00 | 0.01 | 0.01 | 68 | 1020.0 |
| 20260906052802 | 60 | 228 | 2.6 | 2.6 | 0.00 | 0.01 | 0.01 | 68 | 1020.0 |
| 20260906052259 | 60 | 221 | 0.9 | 1.7 | 0.00 | 0.01 | 0.01 | 69 | 1020.2 |
| 20260906051756 | 60 | 206 | 2.6 | 4.3 | 0.00 | 0.01 | 0.01 | 67 | 1020.4 |
| 20260906051255 | 60 | 246 | 3.5 | 4.3 | 0.00 | 0.01 | 0.01 | 68 | 1020.2 |
| 20260906050750 | 60 | 233 | 3.5 | 5.2 | 0.00 | 0.01 | 0.01 | 67 | 1020.2 |
| 20260906050246 | 60 | 226 | 1.7 | 2.6 | 0.00 | 0.01 | 0.01 | 66 | 1020.0 |
| 20260906045744 | 61 | 221 | 1.7 | 2.6 | 0.00 | 0.01 | 0.01 | 66 | 1020.0 |
| 20260906045239 | 60 | 231 | 2.6 | 2.6 | 0.00 | 0.01 | 0.01 | 67 | 1020.3 |
| 20260906044735 | 60 | 262 | 1.7 | 2.6 | 0.00 | 0.01 | 0.01 | 68 | 1020.3 |
| 20260906044230 | 59 | 268 | 0.9 | 0.9 | 0.00 | 0.01 | 0.01 | 68 | 1020.3 |
| 20260906043726 | 61 | 231 | 0.9 | 1.7 | 0.00 | 0.01 | 0.01 | 67 | 1020.2 |
| 20260906043222 | 60 | 10 | 1.7 | 2.6 | 0.00 | 0.01 | 0.01 | 68 | 1020.0 |
| 20260906042721 | 60 | 220 | 2.6 | 2.6 | 0.00 | 0.01 | 0.01 | 68 | 1020.2 |
| 20260906042220 | 60 | 280 | 1.7 | 1.7 | 0.00 | 0.01 | 0.01 | 68 | 1020.0 |
| 20260906041716 | 60 | 265 | 1.7 | 1.7 | 0.00 | 0.01 | 0.01 | 67 | 1019.8 |
| 20260906041211 | 61 | 172 | 2.6 | 2.6 | 0.00 | 0.01 | 0.01 | 64 | 1019.7 |
| 20260906040707 | 61 | 232 | 0.9 | 1.7 | 0.00 | 0.01 | 0.01 | 66 | 1019.8 |
| 20260906040201 | 60 | 197 | 2.6 | 4.3 | 0.00 | 0.01 | 0.01 | 67 | 1019.9 |
| 20260906035657 | 59 | 185 | 2.6 | 2.6 | 0.00 | 0.01 | 0.01 | 68 | 1020.0 |
| 20260906035153 | 60 | 198 | 2.6 | 2.6 | 0.00 | 0.01 | 0.01 | 67 | 1019.8 |
| 20260906034653 | 60 | 245 | 1.7 | 4.3 | 0.00 | 0.01 | 0.01 | 67 | 1019.6 |
| 20260906034148 | 60 | 229 | 2.6 | 2.6 | 0.00 | 0.01 | 0.01 | 67 | 1019.7 |
| 20260906033643 | 60 | 202 | 3.5 | 4.3 | 0.00 | 0.01 | 0.01 | 67 | 1019.9 |
| 20260906033138 | 60 | 222 | 1.7 | 2.6 | 0.00 | 0.01 | 0.01 | 68 | 1019.7 |
| 20260906032635 | 59 | 237 | 2.6 | 2.6 | 0.00 | 0.01 | 0.01 | 69 | 1019.6 |
| 20260906032134 | 59 | 209 | 0.9 | 1.7 | 0.00 | 0.01 | 0.01 | 68 | 1019.8 |
| 20260906031630 | 60 | 263 | 0.9 | 0.9 | 0.00 | 0.01 | 0.01 | 65 | 1019.7 |
| 20260906031125 | 60 | 162 | 3.5 | 5.2 | 0.00 | 0.01 | 0.01 | 66 | 1019.6 |
| 20260906030624 | 61 | 241 | 1.7 | 2.6 | 0.00 | 0.01 | 0.01 | 65 | 1019.8 |
| 20260906030120 | 59 | 217 | 2.6 | 2.6 | 0.00 | 0.01 | 0.01 | 68 | 1019.8 |
| 20260906025619 | 59 | 227 | 1.7 | 1.7 | 0.00 | 0.01 | 0.01 | 68 | 1019.7 |
| 20260906025118 | 59 | 213 | 1.7 | 2.6 | 0.00 | 0.01 | 0.01 | 68 | 1019.7 |
| 20260906024613 | 61 | 256 | 2.6 | 2.6 | 0.00 | 0.01 | 0.01 | 64 | 1020.2 |
| 20260906024107 | 60 | 284 | 0.0 | 0.9 | 0.00 | 0.01 | 0.01 | 67 | 1020.2 |
| 20260906023603 | 60 | 221 | 1.7 | 1.7 | 0.00 | 0.01 | 0.01 | 66 | 1020.3 |
| 20260906023057 | 58 | 205 | 2.6 | 2.6 | 0.00 | 0.01 | 0.01 | 68 | 1020.3 |
| 20260906022553 | 59 | 289 | 2.6 | 2.6 | 0.00 | 0.01 | 0.01 | 67 | 1019.9 |
| 20260906022048 | 59 | 209 | 4.3 | 6.1 | 0.00 | 0.01 | 0.01 | 65 | 1019.9 |
| 20260906021544 | 59 | 226 | 2.6 | 4.3 | 0.00 | 0.01 | 0.01 | 66 | 1019.7 |
| 20260906021042 | 59 | 308 | 1.7 | 2.6 | 0.00 | 0.01 | 0.01 | 68 | 1019.7 |
| 20260906020537 | 58 | 194 | 2.6 | 2.6 | 0.00 | 0.01 | 0.01 | 69 | 1020.0 |
| 20260906020037 | 57 | 246 | 3.5 | 4.3 | 0.00 | 0.01 | 0.01 | 70 | 1020.2 |
| 20260906015536 | 58 | 191 | 3.5 | 4.3 | 0.00 | 0.01 | 0.01 | 68 | 1020.2 |
| 20260906015036 | 59 | 227 | 2.6 | 4.3 | 0.00 | 0.01 | 0.01 | 67 | 1020.3 |
| 20260906014531 | 58 | 165 | 1.7 | 1.7 | 0.00 | 0.01 | 0.01 | 70 | 1020.4 |
| 20260906014026 | 59 | 205 | 2.6 | 4.3 | 0.00 | 0.01 | 0.01 | 69 | 1020.5 |
| 20260906013522 | 59 | 207 | 3.5 | 4.3 | 0.00 | 0.01 | 0.01 | 69 | 1020.5 |
| 20260906013017 | 59 | 197 | 2.6 | 4.3 | 0.00 | 0.01 | 0.01 | 67 | 1020.6 |
| 20260906012512 | 58 | 221 | 2.6 | 2.6 | 0.00 | 0.01 | 0.01 | 68 | 1020.6 |
| 20260906012012 | 57 | 249 | 3.5 | 4.3 | 0.00 | 0.01 | 0.01 | 69 | 1020.7 |
| 20260906011508 | 57 | 219 | 3.5 | 4.3 | 0.00 | 0.01 | 0.01 | 72 | 1020.7 |
| 20260906011002 | 55 | 219 | 2.6 | 4.3 | 0.00 | 0.01 | 0.01 | 71 | 1020.8 |
| 20260906010457 | 57 | 197 | 2.6 | 2.6 | 0.00 | 0.01 | 0.01 | 69 | 1020.8 |
| 20260906005954 | 56 | 203 | 0.9 | 1.7 | 0.00 | 0.01 | 0.01 | 71 | 1020.7 |
| 20260906005453 | 55 | 186 | 3.5 | 5.2 | 0.00 | 0.01 | 0.01 | 72 | 1020.7 |
| 20260906004951 | 55 | 220 | 1.7 | 1.7 | 0.00 | 0.01 | 0.01 | 73 | 1020.6 |
| 20260906004446 | 56 | 188 | 2.6 | 2.6 | 0.00 | 0.01 | 0.01 | 72 | 1020.5 |
| 20260906003941 | 57 | 173 | 1.7 | 1.7 | 0.00 | 0.01 | 0.01 | 71 | 1020.7 |
| 20260906003436 | 56 | 208 | 1.7 | 2.6 | 0.00 | 0.01 | 0.01 | 72 | 1020.6 |
| 20260906002931 | 55 | 197 | 2.6 | 2.6 | 0.00 | 0.01 | 0.01 | 74 | 1020.9 |
| 20260906002431 | 54 | 269 | 3.5 | 4.3 | 0.00 | 0.01 | 0.01 | 75 | 1020.5 |
| 20260906001926 | 54 | 189 | 1.7 | 1.7 | 0.00 | 0.01 | 0.01 | 76 | 1020.0 |
| 20260906001422 | 54 | 220 | 1.7 | 1.7 | 0.00 | 0.01 | 0.01 | 76 | 1020.4 |
| 20260906000917 | 53 | 215 | 2.6 | 2.6 | 0.00 | 0.01 | 0.01 | 76 | 1020.4 |
| 20260906000412 | 54 | 145 | 2.6 | 2.6 | 0.00 | 0.01 | 0.01 | 75 | 1020.3 |
| 20260905235907 | 53 | 232 | 0.9 | 1.7 | 0.00 | 0.01 | 0.01 | 77 | 1020.2 |
| 20260905235401 | 54 | 220 | 2.6 | 4.3 | 0.00 | 0.01 | 0.01 | 77 | 1020.2 |
| 20260905234856 | 54 | 224 | 3.5 | 6.1 | 0.00 | 0.01 | 0.01 | 75 | 1019.9 |
| 20260905234351 | 53 | 260 | 2.6 | 2.6 | 0.00 | 0.01 | 0.01 | 77 | 1019.9 |
| 20260905233846 | 52 | 185 | 4.3 | 5.2 | 0.00 | 0.01 | 0.01 | 77 | 1019.6 |
| 20260905233341 | 52 | 155 | 4.3 | 6.1 | 0.00 | 0.01 | 0.01 | 76 | 1019.9 |
| 20260905232841 | 51 | 186 | 2.6 | 4.3 | 0.00 | 0.01 | 0.01 | 78 | 1019.7 |
| 20260905232337 | 51 | 194 | 3.5 | 4.3 | 0.00 | 0.01 | 0.01 | 78 | 1019.4 |
| 20260905231832 | 52 | 197 | 3.5 | 7.0 | 0.00 | 0.01 | 0.01 | 78 | 1019.6 |
| 20260905231333 | 52 | 223 | 1.7 | 2.6 | 0.00 | 0.01 | 0.01 | 79 | 1019.7 |
| 20260905230830 | 51 | 286 | 1.7 | 1.7 | 0.00 | 0.01 | 0.01 | 80 | 1019.5 |
| 20260905230327 | 51 | 257 | 2.6 | 2.6 | 0.00 | 0.01 | 0.01 | 81 | 1019.7 |
| 20260905225826 | 51 | 226 | 2.6 | 2.6 | 0.00 | 0.01 | 0.01 | 82 | 1019.4 |
| 20260905225322 | 50 | 189 | 3.5 | 5.2 | 0.00 | 0.01 | 0.01 | 82 | 1019.8 |
| 20260905224822 | 50 | 219 | 0.0 | 0.9 | 0.00 | 0.01 | 0.01 | 82 | 1019.8 |
| 20260905224318 | 51 | 212 | 2.6 | 2.6 | 0.00 | 0.01 | 0.01 | 81 | 1019.8 |
| 20260905223812 | 52 | 224 | 3.5 | 4.3 | 0.00 | 0.01 | 0.01 | 78 | 1019.4 |
| 20260905223310 | 52 | 213 | 0.9 | 1.7 | 0.00 | 0.01 | 0.01 | 78 | 1019.1 |
| 20260905222805 | 52 | 123 | 0.9 | 1.7 | 0.00 | 0.01 | 0.01 | 77 | 1019.1 |
| 20260905222306 | 51 | 229 | 2.6 | 4.3 | 0.00 | 0.01 | 0.01 | 79 | 1019.4 |
| 20260905221800 | 51 | 230 | 2.6 | 2.6 | 0.00 | 0.01 | 0.01 | 78 | 1019.5 |
| 20260905221256 | 51 | 181 | 2.6 | 2.6 | 0.00 | 0.01 | 0.01 | 78 | 1019.4 |
| 20260905220752 | 50 | 187 | 2.6 | 4.3 | 0.00 | 0.01 | 0.01 | 79 | 1019.3 |
| 20260905220248 | 50 | 183 | 1.7 | 1.7 | 0.00 | 0.01 | 0.01 | 79 | 1019.4 |
| 20260905215747 | 50 | 276 | 1.7 | 1.7 | 0.00 | 0.01 | 0.01 | 80 | 1019.4 |
| 20260905215243 | 50 | 237 | 0.9 | 0.9 | 0.00 | 0.01 | 0.01 | 82 | 1019.1 |
| 20260905214739 | 50 | 207 | 1.7 | 1.7 | 0.00 | 0.01 | 0.01 | 81 | 1019.1 |
| 20260905214234 | 49 | 249 | 1.7 | 2.6 | 0.00 | 0.01 | 0.01 | 83 | 1019.1 |
| 20260905213730 | 48 | 282 | 0.0 | 0.9 | 0.00 | 0.01 | 0.01 | 85 | 1019.2 |
| 20260905213226 | 47 | 156 | 1.7 | 2.6 | 0.00 | 0.01 | 0.01 | 87 | 1019.2 |
| 20260905212720 | 47 | 78 | 1.7 | 1.7 | 0.00 | 0.01 | 0.01 | 88 | 1019.0 |
| 20260905212219 | 47 | 238 | 0.0 | 0.0 | 0.00 | 0.01 | 0.01 | 88 | 1019.0 |
| 20260905211714 | 47 | 207 | 1.7 | 1.7 | 0.00 | 0.01 | 0.01 | 88 | 1019.2 |
| 20260905211209 | 46 | 227 | 0.0 | 0.9 | 0.00 | 0.01 | 0.01 | 88 | 1019.0 |
| 20260905210706 | 46 | 195 | 0.9 | 0.9 | 0.00 | 0.01 | 0.01 | 88 | 1018.9 |
| 20260905210206 | 46 | 266 | 1.7 | 1.7 | 0.00 | 0.01 | 0.01 | 88 | 1018.8 |
| 20260905205704 | 46 | 270 | 1.7 | 1.7 | 0.00 | 0.01 | 0.01 | 89 | 1018.8 |
| 20260905205159 | 46 | 235 | 0.9 | 0.9 | 0.00 | 0.01 | 0.01 | 89 | 1018.6 |
| 20260905204658 | 46 | 195 | 0.9 | 0.9 | 0.00 | 0.01 | 0.01 | 89 | 1018.8 |
| 20260905204154 | 46 | 229 | 1.7 | 1.7 | 0.00 | 0.01 | 0.01 | 89 | 1018.7 |
| 20260905203648 | 46 | 213 | 1.7 | 2.6 | 0.00 | 0.01 | 0.01 | 90 | 1018.4 |
| 20260905203144 | 46 | 271 | 0.9 | 0.9 | 0.00 | 0.01 | 0.01 | 90 | 1018.3 |
| 20260905202639 | 46 | 215 | 0.9 | 0.9 | 0.00 | 0.01 | 0.01 | 90 | 1018.1 |
| 20260905202135 | 46 | 223 | 0.9 | 0.9 | 0.00 | 0.01 | 0.01 | 90 | 1018.0 |
| 20260905201630 | 46 | 213 | 1.7 | 1.7 | 0.00 | 0.01 | 0.01 | 89 | 1018.0 |
| 20260905201130 | 47 | 212 | 2.6 | 2.6 | 0.00 | 0.01 | 0.01 | 89 | 1018.0 |
| 20260905200626 | 47 | 296 | 1.7 | 2.6 | 0.00 | 0.01 | 0.01 | 88 | 1017.9 |
| 20260905200121 | 47 | 257 | 1.7 | 1.7 | 0.00 | 0.01 | 0.01 | 88 | 1018.0 |
| 20260905195619 | 47 | 226 | 1.7 | 1.7 | 0.00 | 0.01 | 0.01 | 88 | 1018.1 |
| 20260905195115 | 47 | 228 | 1.7 | 1.7 | 0.00 | 0.01 | 0.01 | 88 | 1017.9 |
| 20260905194615 | 47 | 244 | 1.7 | 1.7 | 0.00 | 0.01 | 0.01 | 87 | 1017.9 |
| 20260905194114 | 47 | 230 | 1.7 | 1.7 | 0.00 | 0.01 | 0.01 | 87 | 1017.9 |
| 20260905193609 | 47 | 283 | 0.9 | 0.9 | 0.00 | 0.01 | 0.01 | 86 | 1017.9 |
| 20260905193104 | 47 | 208 | 1.7 | 2.6 | 0.00 | 0.01 | 0.01 | 86 | 1017.6 |
| 20260905192600 | 48 | 203 | 1.7 | 1.7 | 0.00 | 0.01 | 0.01 | 85 | 1017.9 |
| 20260905192056 | 47 | 227 | 2.6 | 2.6 | 0.00 | 0.01 | 0.01 | 85 | 1017.5 |
| 20260905191554 | 47 | 233 | 0.9 | 1.7 | 0.00 | 0.01 | 0.01 | 85 | 1017.5 |
| 20260905191054 | 47 | 179 | 2.6 | 2.6 | 0.00 | 0.01 | 0.01 | 86 | 1017.3 |
| 20260905190552 | 47 | 180 | 1.7 | 1.7 | 0.00 | 0.01 | 0.01 | 86 | 1017.0 |
| 20260905190051 | 47 | 254 | 1.7 | 1.7 | 0.00 | 0.01 | 0.01 | 86 | 1017.4 |
| 20260905185550 | 47 | 227 | 0.9 | 1.7 | 0.00 | 0.01 | 0.01 | 86 | 1017.2 |
| 20260905185050 | 47 | 200 | 0.9 | 0.9 | 0.00 | 0.01 | 0.01 | 86 | 1016.8 |
| 20260905184544 | 48 | 258 | 1.7 | 1.7 | 0.00 | 0.01 | 0.01 | 86 | 1017.2 |
| 20260905184044 | 47 | 224 | 2.6 | 2.6 | 0.00 | 0.01 | 0.01 | 86 | 1017.1 |
| 20260905183543 | 47 | 52 | 0.0 | 0.0 | 0.00 | 0.01 | 0.01 | 85 | 1017.0 |
| 20260905183033 | 47 | 245 | 0.0 | 0.0 | 0.00 | 0.01 | 0.01 | 86 | 1017.1 |
| 20260905182532 | 47 | 219 | 0.9 | 1.7 | 0.00 | 0.01 | 0.01 | 86 | 1017.1 |
| 20260905182027 | 47 | 234 | 0.9 | 1.7 | 0.00 | 0.01 | 0.01 | 86 | 1016.8 |
| 20260905181522 | 47 | 234 | 0.9 | 1.7 | 0.00 | 0.01 | 0.01 | 86 | 1016.8 |
| 20260905181021 | 47 | 248 | 1.7 | 1.7 | 0.00 | 0.01 | 0.01 | 86 | 1016.8 |
| 20260905180516 | 47 | 203 | 0.9 | 1.7 | 0.00 | 0.01 | 0.01 | 86 | 1017.0 |
| 20260905180011 | 47 | 267 | 2.6 | 2.6 | 0.00 | 0.01 | 0.01 | 85 | 1016.7 |
| 20260905175510 | 47 | 211 | 0.9 | 0.9 | 0.00 | 0.01 | 0.01 | 85 | 1016.8 |
| 20260905175006 | 47 | 201 | 0.9 | 1.7 | 0.00 | 0.01 | 0.01 | 85 | 1016.7 |
| 20260905174501 | 48 | 226 | 1.7 | 1.7 | 0.00 | 0.01 | 0.01 | 84 | 1016.3 |
| 20260905173957 | 48 | 222 | 2.6 | 4.3 | 0.00 | 0.01 | 0.01 | 84 | 1016.5 |
| 20260905173453 | 48 | 219 | 0.9 | 0.9 | 0.00 | 0.01 | 0.01 | 83 | 1016.3 |
| 20260905172948 | 48 | 191 | 0.9 | 0.9 | 0.00 | 0.01 | 0.01 | 83 | 1016.3 |
| 20260905172446 | 48 | 274 | 1.7 | 2.6 | 0.00 | 0.01 | 0.01 | 82 | 1016.2 |
| 20260905171942 | 49 | 231 | 0.9 | 1.7 | 0.00 | 0.01 | 0.01 | 82 | 1016.2 |
| 20260905171439 | 49 | 247 | 2.6 | 2.6 | 0.00 | 0.01 | 0.01 | 81 | 1016.2 |
| 20260905170935 | 49 | 171 | 5.2 | 7.0 | 0.00 | 0.01 | 0.01 | 81 | 1016.3 |
| 20260905170431 | 49 | 215 | 0.9 | 0.9 | 0.00 | 0.01 | 0.01 | 81 | 1016.3 |
| 20260905165930 | 50 | 304 | 0.9 | 0.9 | 0.00 | 0.01 | 0.01 | 80 | 1016.3 |
| 20260905165425 | 50 | 224 | 2.6 | 4.3 | 0.00 | 0.01 | 0.01 | 80 | 1016.2 |
| 20260905164920 | 50 | 270 | 1.7 | 2.6 | 0.00 | 0.01 | 0.01 | 79 | 1016.3 |
| 20260905164420 | 50 | 221 | 2.6 | 4.3 | 0.00 | 0.01 | 0.01 | 81 | 1016.3 |
| 20260905163915 | 50 | 238 | 0.0 | 0.9 | 0.00 | 0.01 | 0.01 | 80 | 1016.2 |
| 20260905163412 | 50 | 207 | 1.7 | 1.7 | 0.00 | 0.01 | 0.01 | 79 | 1016.2 |
| 20260905162908 | 50 | 183 | 1.7 | 1.7 | 0.00 | 0.01 | 0.01 | 80 | 1016.2 |
| 20260905162402 | 50 | 326 | 0.9 | 0.9 | 0.00 | 0.01 | 0.01 | 80 | 1016.1 |
| 20260905161857 | 50 | 246 | 1.7 | 1.7 | 0.00 | 0.01 | 0.01 | 80 | 1016.2 |
| 20260905161356 | 50 | 255 | 0.9 | 0.9 | 0.00 | 0.01 | 0.01 | 80 | 1016.2 |
| 20260905160854 | 51 | 212 | 0.9 | 2.6 | 0.00 | 0.01 | 0.01 | 79 | 1016.3 |
| 20260905160348 | 51 | 206 | 3.5 | 4.3 | 0.00 | 0.01 | 0.01 | 79 | 1016.4 |
| 20260905155843 | 51 | 247 | 2.6 | 2.6 | 0.00 | 0.01 | 0.01 | 80 | 1016.1 |
| 20260905155337 | 51 | 199 | 4.3 | 5.2 | 0.00 | 0.01 | 0.01 | 80 | 1016.0 |
| 20260905154836 | 51 | 214 | 1.7 | 2.6 | 0.00 | 0.01 | 0.01 | 80 | 1016.1 |
| 20260905154332 | 51 | 216 | 4.3 | 5.2 | 0.00 | 0.01 | 0.01 | 79 | 1015.7 |
| 20260905153827 | 51 | 219 | 6.1 | 8.7 | 0.00 | 0.01 | 0.01 | 81 | 1015.9 |
| 20260905153324 | 51 | 172 | 1.7 | 2.6 | 0.00 | 0.01 | 0.01 | 81 | 1015.7 |
| 20260905152823 | 52 | 211 | 4.3 | 7.0 | 0.00 | 0.01 | 0.01 | 81 | 1015.7 |
| 20260905152322 | 52 | 209 | 1.7 | 1.7 | 0.00 | 0.01 | 0.01 | 81 | 1015.7 |
| 20260905151818 | 52 | 209 | 0.9 | 1.7 | 0.00 | 0.01 | 0.01 | 80 | 1015.9 |
| 20260905151314 | 53 | 232 | 3.5 | 5.2 | 0.00 | 0.01 | 0.01 | 81 | 1015.5 |
| 20260905150814 | 53 | 177 | 3.5 | 6.1 | 0.00 | 0.01 | 0.01 | 80 | 1015.7 |
| 20260905150314 | 53 | 203 | 1.7 | 2.6 | 0.00 | 0.01 | 0.01 | 79 | 1015.5 |
| 20260905145811 | 53 | 239 | 0.9 | 1.7 | 0.00 | 0.01 | 0.01 | 78 | 1015.8 |